Location: Hat Ranch Observatory
(35.4668°N, 106.0752°W)
Time: 19:44:44
(UTC-07:00)

Envisat - Visible Passes

Search period start: 20 January 2022 00:00
Search period end: 30 January 2022 00:00
Orbit: 764 x 766 km, 98.2° (Epoch: 20 January)

Date Brightness Start Highest point End Pass type
(mag) Time Alt. Az. Time Alt. Az. Time Alt. Az.
20 Jan 4.0 04:28:09 10° NNE 04:33:00 44° E 04:37:48 10° S visible
20 Jan 4.2 06:08:09 10° NNW 06:11:38 19° WNW 06:15:05 10° WSW visible
21 Jan 5.4 03:52:25 10° NE 03:55:55 19° E 03:59:25 10° SE visible
21 Jan 3.3 05:30:18 10° N 05:35:04 42° WNW 05:39:48 10° SW visible
22 Jan 2.9 04:53:12 10° NNE 04:58:18 82° ESE 05:03:22 10° S visible
22 Jan 4.8 06:35:47 10° NW 06:36:34 10° WNW 06:37:22 10° WNW visible
23 Jan 4.5 04:16:46 10° NNE 04:21:22 34° E 04:25:55 10° SSE visible
23 Jan 4.0 05:56:09 10° NNW 06:00:09 24° WNW 06:04:09 10° WSW visible
24 Jan 5.7 03:41:34 10° ENE 03:44:13 14° E 03:46:52 10° SE visible
24 Jan 3.0 05:18:35 10° N 05:23:32 55° WNW 05:28:27 10° SSW visible
25 Jan 3.3 04:41:40 10° NNE 04:46:43 63° E 04:51:43 10° S visible
25 Jan 4.6 06:22:41 10° NW 06:25:08 14° WNW 06:27:35 10° W visible
26 Jan 4.9 04:05:29 10° NE 04:09:43 26° E 04:13:55 10° SSE visible
26 Jan 3.7 05:44:15 10° N 05:48:39 30° WNW 05:53:03 10° SW visible
27 Jan 6.0 03:31:36 10° E 03:32:31 10° E 03:33:26 10° E visible
27 Jan 2.8 05:06:54 10° N 05:11:58 72° WNW 05:17:00 10° SSW visible
28 Jan 3.8 04:30:12 10° NNE 04:35:06 48° E 04:39:58 10° S visible
28 Jan 4.3 06:10:24 10° NNW 06:13:41 18° WNW 06:16:58 10° WSW visible
29 Jan 5.3 03:54:20 10° NE 03:58:02 20° E 04:01:43 10° SE visible
29 Jan 3.4 05:32:26 10° N 05:37:08 39° WNW 05:41:48 10° SW visible
